Terminal Aerodrome Forecast
Issued by NWS Newport/Morehead City, NC

Home | Current Version | Previous Version | Text Only | Print | Product List | Glossary On
Versions: 1 2 3 4 5 6 7 8 9 10 11 12 13 14 15 16 17
000
FTUS42 KMHX 281100
TAFEWN
TAF
KEWN 281124Z 2812/2912 00000KT P6SM SKC
     FM281400 21005KT P6SM SCT250
     FM290800 21005KT 3SM BR BKN250=

USA.gov is the U.S. government's official web portal to all federal, state and local government web resources and services.